Location: Newark
(36.9100°N, 76.7100°W)
Time: 05:41:15
(UTC+00:00)

OTV 5 (USA 277) - Visible Passes

Search period start: 14 October 2019 00:00
Search period end: 24 October 2019 00:00
Orbit: 310 x 324 km, 54.5° (Epoch: 08 October)

Date Brightness Start Highest point End Pass type
(mag) Time Alt. Az. Time Alt. Az. Time Alt. Az.
17 Oct ? 10:26:49 10° N 10:28:37 16° NE 10:30:25 10° ENE visible
18 Oct ? 10:40:44 10° NNW 10:43:20 38° NE 10:45:56 10° ESE visible
19 Oct ? 09:23:15 11° NNE 09:23:19 11° NNE 09:24:09 10° NE visible
20 Oct ? 09:37:54 23° NNE 09:38:07 23° NE 09:40:24 10° E visible
21 Oct ? 09:52:41 72° NNE 09:52:45 73° NE 09:55:27 10° SE visible
22 Oct ? 10:07:36 28° SSW 10:07:36 28° SSW 10:09:39 10° SSE visible
